Data supplied by UK-AIR on 30/4/2024
All Data GMT hour ending 
Status: R =Ratified P=Provisional,P*=As supplied
,,Chatham Roadside,,,,,,,,,,,,,,,,,,,,,,,
Date,time,"PM<sub>10</sub> particulate matter (Hourly measured)",status,unit,"Nitric oxide",status,unit,"Nitrogen dioxide",status,unit,"Nitrogen oxides as nitrogen dioxide",status,unit,"PM<sub>2.5</sub> particulate matter (Hourly measured)",status,unit
 
01-01-2023,01:00,12.561,R,ugm-3 (Ref.eq),1.69270,R,ugm-3,5.81505,R,ugm-3,8.41049,R,ugm-3,5.000,R,ugm-3 (BAM)
01-01-2023,02:00,6.763,R,ugm-3 (Ref.eq),1.60361,R,ugm-3,3.64555,R,ugm-3,6.10438,R,ugm-3,6.000,R,ugm-3 (BAM)
01-01-2023,03:00,13.527,R,ugm-3 (Ref.eq),1.23611,R,ugm-3,3.85295,R,ugm-3,5.74829,R,ugm-3,5.000,R,ugm-3 (BAM)
01-01-2023,04:00,18.358,R,ugm-3 (Ref.eq),1.26952,R,ugm-3,3.49650,R,ugm-3,5.44308,R,ugm-3,8.000,R,ugm-3 (BAM)
01-01-2023,05:00,15.459,R,ugm-3 (Ref.eq),1.06907,R,ugm-3,3.14255,R,ugm-3,4.78177,R,ugm-3,8.000,R,ugm-3 (BAM)
01-01-2023,06:00,13.527,R,ugm-3 (Ref.eq),1.33634,R,ugm-3,2.78361,R,ugm-3,4.83264,R,ugm-3,6.000,R,ugm-3 (BAM)
01-01-2023,07:00,11.594,R,ugm-3 (Ref.eq),0.70158,R,ugm-3,2.94298,R,ugm-3,4.01872,R,ugm-3,8.000,R,ugm-3 (BAM)
01-01-2023,08:00,19.324,R,ugm-3 (Ref.eq),1.03566,R,ugm-3,2.58333,R,ugm-3,4.17133,R,ugm-3,7.000,R,ugm-3 (BAM)
01-01-2023,09:00,19.324,R,ugm-3 (Ref.eq),1.93769,R,ugm-3,4.71026,R,ugm-3,7.68135,R,ugm-3,7.000,R,ugm-3 (BAM)
01-01-2023,10:00,23.189,R,ugm-3 (Ref.eq),1.93769,R,ugm-3,4.20156,R,ugm-3,7.17265,R,ugm-3,9.000,R,ugm-3 (BAM)
01-01-2023,11:00,21.256,R,ugm-3 (Ref.eq),3.84198,R,ugm-3,6.11434,R,ugm-3,12.00529,R,ugm-3,11.000,R,ugm-3 (BAM)
01-01-2023,12:00,17.392,R,ugm-3 (Ref.eq),4.40992,R,ugm-3,5.70133,R,ugm-3,12.46312,R,ugm-3,11.000,R,ugm-3 (BAM)
01-01-2023,13:00,20.290,R,ugm-3 (Ref.eq),4.20947,R,ugm-3,9.01001,R,ugm-3,15.46444,R,ugm-3,8.000,R,ugm-3 (BAM)
01-01-2023,14:00,25.121,R,ugm-3 (Ref.eq),5.81308,R,ugm-3,10.41728,R,ugm-3,19.33055,R,ugm-3,7.000,R,ugm-3 (BAM)
01-01-2023,15:00,24.155,R,ugm-3 (Ref.eq),6.98238,R,ugm-3,9.84526,R,ugm-3,20.55143,R,ugm-3,9.000,R,ugm-3 (BAM)
01-01-2023,16:00,21.256,R,ugm-3 (Ref.eq),6.31421,R,ugm-3,13.56588,R,ugm-3,23.24753,R,ugm-3,8.000,R,ugm-3 (BAM)
01-01-2023,17:00,22.223,R,ugm-3 (Ref.eq),5.67945,R,ugm-3,14.28482,R,ugm-3,22.99318,R,ugm-3,9.000,R,ugm-3 (BAM)
01-01-2023,18:00,7.730,R,ugm-3 (Ref.eq),3.97561,R,ugm-3,13.08209,R,ugm-3,19.17794,R,ugm-3,11.000,R,ugm-3 (BAM)
01-01-2023,19:00,9.662,R,ugm-3 (Ref.eq),8.21849,R,ugm-3,22.39696,R,ugm-3,34.99847,R,ugm-3,9.000,R,ugm-3 (BAM)
01-01-2023,20:00,8.696,R,ugm-3 (Ref.eq),15.26769,R,ugm-3,27.35800,R,ugm-3,50.76813,R,ugm-3,6.000,R,ugm-3 (BAM)
01-01-2023,21:00,9.662,R,ugm-3 (Ref.eq),11.99365,R,ugm-3,25.66329,R,ugm-3,44.05330,R,ugm-3,8.000,R,ugm-3 (BAM)
01-01-2023,22:00,5.797,R,ugm-3 (Ref.eq),4.37651,R,ugm-3,19.74177,R,ugm-3,26.45233,R,ugm-3,8.000,R,ugm-3 (BAM)
01-01-2023,23:00,5.797,R,ugm-3 (Ref.eq),1.33634,R,ugm-3,11.68584,R,ugm-3,13.73486,R,ugm-3,6.000,R,ugm-3 (BAM)
01-01-2023,24:00,2.899,R,ugm-3 (Ref.eq),1.60361,R,ugm-3,12.75126,R,ugm-3,15.21009,R,ugm-3,8.000,R,ugm-3 (BAM)
02-01-2023,01:00,3.865,R,ugm-3 (Ref.eq),2.71920,R,ugm-3,13.00254,R,ugm-3,17.17191,R,ugm-3,5.000,R,ugm-3 (BAM)
02-01-2023,02:00,2.899,R,ugm-3 (Ref.eq),1.20358,R,ugm-3,6.96108,R,ugm-3,8.80654,R,ugm-3,-2.000,R,ugm-3 (BAM)
02-01-2023,03:00,1.932,R,ugm-3 (Ref.eq),0.63522,R,ugm-3,5.03278,R,ugm-3,6.00677,R,ugm-3,0.000,R,ugm-3 (BAM)
02-01-2023,04:00,3.865,R,ugm-3 (Ref.eq),0.63522,R,ugm-3,3.25111,R,ugm-3,4.22511,R,ugm-3,4.000,R,ugm-3 (BAM)
02-01-2023,05:00,6.763,R,ugm-3 (Ref.eq),0.46806,R,ugm-3,3.25290,R,ugm-3,3.97058,R,ugm-3,9.000,R,ugm-3 (BAM)
02-01-2023,06:00,7.730,R,ugm-3 (Ref.eq),1.43761,R,ugm-3,3.19162,R,ugm-3,5.39592,R,ugm-3,8.000,R,ugm-3 (BAM)
02-01-2023,07:00,5.797,R,ugm-3 (Ref.eq),1.77193,R,ugm-3,8.02400,R,ugm-3,10.74093,R,ugm-3,4.000,R,ugm-3 (BAM)
02-01-2023,08:00,5.797,R,ugm-3 (Ref.eq),4.51342,R,ugm-3,10.33628,R,ugm-3,17.25675,R,ugm-3,6.000,R,ugm-3 (BAM)
02-01-2023,09:00,9.662,R,ugm-3 (Ref.eq),5.81729,R,ugm-3,13.58023,R,ugm-3,22.49995,R,ugm-3,5.000,R,ugm-3 (BAM)
02-01-2023,10:00,8.696,R,ugm-3 (Ref.eq),12.97190,R,ugm-3,19.30679,R,ugm-3,39.19675,R,ugm-3,7.000,R,ugm-3 (BAM)
02-01-2023,11:00,9.662,R,ugm-3 (Ref.eq),26.37842,R,ugm-3,35.50373,R,ugm-3,75.95007,R,ugm-3,7.000,R,ugm-3 (BAM)
02-01-2023,12:00,9.662,R,ugm-3 (Ref.eq),30.95870,R,ugm-3,37.54179,R,ugm-3,85.01114,R,ugm-3,8.000,R,ugm-3 (BAM)
02-01-2023,13:00,13.527,R,ugm-3 (Ref.eq),30.32348,R,ugm-3,31.33820,R,ugm-3,77.83355,R,ugm-3,19.000,R,ugm-3 (BAM)
02-01-2023,14:00,11.594,R,ugm-3 (Ref.eq),21.16291,R,ugm-3,30.97812,R,ugm-3,63.42747,R,ugm-3,12.000,R,ugm-3 (BAM)
02-01-2023,15:00,12.561,R,ugm-3 (Ref.eq),26.67931,R,ugm-3,33.56612,R,ugm-3,74.47383,R,ugm-3,9.000,R,ugm-3 (BAM)
02-01-2023,16:00,15.459,R,ugm-3 (Ref.eq),29.95572,R,ugm-3,38.92696,R,ugm-3,84.85842,R,ugm-3,1.000,R,ugm-3 (BAM)
02-01-2023,17:00,15.459,R,ugm-3 (Ref.eq),23.53664,R,ugm-3,38.99568,R,ugm-3,75.08469,R,ugm-3,6.000,R,ugm-3 (BAM)
02-01-2023,18:00,12.561,R,ugm-3 (Ref.eq),9.59519,R,ugm-3,42.04651,R,ugm-3,56.75893,R,ugm-3,11.000,R,ugm-3 (BAM)
02-01-2023,19:00,18.358,R,ugm-3 (Ref.eq),15.37905,R,ugm-3,48.85675,R,ugm-3,72.43764,R,ugm-3,16.000,R,ugm-3 (BAM)
02-01-2023,20:00,16.425,R,ugm-3 (Ref.eq),4.11223,R,ugm-3,35.02943,R,ugm-3,41.33476,R,ugm-3,13.000,R,ugm-3 (BAM)
02-01-2023,21:00,14.493,R,ugm-3 (Ref.eq),6.41908,R,ugm-3,34.13936,R,ugm-3,43.98181,R,ugm-3,13.000,R,ugm-3 (BAM)
02-01-2023,22:00,11.594,R,ugm-3 (Ref.eq),1.40417,R,ugm-3,18.41253,R,ugm-3,20.56557,R,ugm-3,13.000,R,ugm-3 (BAM)
02-01-2023,23:00,10.628,R,ugm-3 (Ref.eq),1.97253,R,ugm-3,16.72659,R,ugm-3,19.75109,R,ugm-3,11.000,R,ugm-3 (BAM)
02-01-2023,24:00,10.628,R,ugm-3 (Ref.eq),0.96955,R,ugm-3,8.54164,R,ugm-3,10.02826,R,ugm-3,9.000,R,ugm-3 (BAM)
03-01-2023,01:00,5.797,R,ugm-3 (Ref.eq),0.89219,R,ugm-3,9.49918,R,ugm-3,10.86718,R,ugm-3,6.000,R,ugm-3 (BAM)
03-01-2023,02:00,7.730,R,ugm-3 (Ref.eq),0.50185,R,ugm-3,6.46397,R,ugm-3,7.23346,R,ugm-3,4.000,R,ugm-3 (BAM)
03-01-2023,03:00,7.730,R,ugm-3 (Ref.eq),0.63568,R,ugm-3,7.22662,R,ugm-3,8.20132,R,ugm-3,6.000,R,ugm-3 (BAM)
03-01-2023,04:00,6.763,R,ugm-3 (Ref.eq),0.50185,R,ugm-3,9.21472,R,ugm-3,9.98422,R,ugm-3,9.000,R,ugm-3 (BAM)
03-01-2023,05:00,14.493,R,ugm-3 (Ref.eq),2.77693,R,ugm-3,7.76392,R,ugm-3,12.02181,R,ugm-3,7.000,R,ugm-3 (BAM)
03-01-2023,06:00,7.730,R,ugm-3 (Ref.eq),4.28249,R,ugm-3,12.94358,R,ugm-3,19.50998,R,ugm-3,6.000,R,ugm-3 (BAM)
03-01-2023,07:00,5.797,R,ugm-3 (Ref.eq),12.57981,R,ugm-3,20.95373,R,ugm-3,40.24251,R,ugm-3,5.000,R,ugm-3 (BAM)
03-01-2023,08:00,14.493,R,ugm-3 (Ref.eq),24.52394,R,ugm-3,32.79607,R,ugm-3,70.39892,R,ugm-3,9.000,R,ugm-3 (BAM)
03-01-2023,09:00,12.561,R,ugm-3 (Ref.eq),26.06296,R,ugm-3,29.41748,R,ugm-3,69.38012,R,ugm-3,10.000,R,ugm-3 (BAM)
03-01-2023,10:00,12.561,R,ugm-3 (Ref.eq),10.90696,R,ugm-3,14.80801,R,ugm-3,31.53179,R,ugm-3,8.000,R,ugm-3 (BAM)
03-01-2023,11:00,20.290,R,ugm-3 (Ref.eq),13.38278,R,ugm-3,16.97178,R,ugm-3,37.49176,R,ugm-3,7.000,R,ugm-3 (BAM)
03-01-2023,12:00,16.425,R,ugm-3 (Ref.eq),7.42744,R,ugm-3,14.13230,R,ugm-3,25.52088,R,ugm-3,7.000,R,ugm-3 (BAM)
03-01-2023,13:00,16.425,R,ugm-3 (Ref.eq),10.13745,R,ugm-3,13.74656,R,ugm-3,29.29043,R,ugm-3,7.000,R,ugm-3 (BAM)
03-01-2023,14:00,6.763,R,ugm-3 (Ref.eq),8.56498,R,ugm-3,14.68039,R,ugm-3,27.81318,R,ugm-3,13.000,R,ugm-3 (BAM)
03-01-2023,15:00,5.797,R,ugm-3 (Ref.eq),8.33078,R,ugm-3,17.58649,R,ugm-3,30.36017,R,ugm-3,13.000,R,ugm-3 (BAM)
03-01-2023,16:00,5.797,R,ugm-3 (Ref.eq),28.94026,R,ugm-3,26.58482,R,ugm-3,70.95926,R,ugm-3,9.000,R,ugm-3 (BAM)
03-01-2023,17:00,6.763,R,ugm-3 (Ref.eq),10.40511,R,ugm-3,16.18879,R,ugm-3,32.14307,R,ugm-3,6.000,R,ugm-3 (BAM)
03-01-2023,18:00,9.662,R,ugm-3 (Ref.eq),6.08916,R,ugm-3,13.73918,R,ugm-3,23.07577,R,ugm-3,7.000,R,ugm-3 (BAM)
03-01-2023,19:00,8.696,R,ugm-3 (Ref.eq),5.92188,R,ugm-3,9.81861,R,ugm-3,18.89870,R,ugm-3,6.000,R,ugm-3 (BAM)
03-01-2023,20:00,9.662,R,ugm-3 (Ref.eq),4.38286,R,ugm-3,10.65021,R,ugm-3,17.37050,R,ugm-3,3.000,R,ugm-3 (BAM)
03-01-2023,21:00,3.865,R,ugm-3 (Ref.eq),5.05200,R,ugm-3,7.12816,R,ugm-3,14.87445,R,ugm-3,3.000,R,ugm-3 (BAM)
03-01-2023,22:00,0.966,R,ugm-3 (Ref.eq),3.91446,R,ugm-3,6.22348,R,ugm-3,12.22557,R,ugm-3,-4.000,R,ugm-3 (BAM)
03-01-2023,23:00,5.797,R,ugm-3 (Ref.eq),1.63939,R,ugm-3,4.97447,R,ugm-3,7.48816,R,ugm-3,3.000,R,ugm-3 (BAM)
03-01-2023,24:00,7.730,R,ugm-3 (Ref.eq),0.80297,R,ugm-3,2.84399,R,ugm-3,4.07519,R,ugm-3,16.000,R,ugm-3 (BAM)
04-01-2023,01:00,6.763,R,ugm-3 (Ref.eq),1.07140,R,ugm-3,2.02741,R,ugm-3,3.67019,R,ugm-3,9.000,R,ugm-3 (BAM)
04-01-2023,02:00,5.797,R,ugm-3 (Ref.eq),0.16741,R,ugm-3,1.42549,R,ugm-3,1.68217,R,ugm-3,3.000,R,ugm-3 (BAM)
04-01-2023,03:00,12.561,R,ugm-3 (Ref.eq),0.40177,R,ugm-3,1.57588,R,ugm-3,2.19192,R,ugm-3,4.000,R,ugm-3 (BAM)
04-01-2023,04:00,9.662,R,ugm-3 (Ref.eq),0.56918,R,ugm-3,2.08381,R,ugm-3,2.95654,R,ugm-3,4.000,R,ugm-3 (BAM)
04-01-2023,05:00,5.797,R,ugm-3 (Ref.eq),0.43526,R,ugm-3,2.49306,R,ugm-3,3.16044,R,ugm-3,3.000,R,ugm-3 (BAM)
04-01-2023,06:00,1.932,R,ugm-3 (Ref.eq),2.20976,R,ugm-3,3.95214,R,ugm-3,7.34039,R,ugm-3,3.000,R,ugm-3 (BAM)
04-01-2023,07:00,2.899,R,ugm-3 (Ref.eq),6.36142,R,ugm-3,10.43202,R,ugm-3,20.18606,R,ugm-3,4.000,R,ugm-3 (BAM)
04-01-2023,08:00,2.899,R,ugm-3 (Ref.eq),19.98825,R,ugm-3,21.09129,R,ugm-3,51.73952,R,ugm-3,6.000,R,ugm-3 (BAM)
04-01-2023,09:00,2.899,R,ugm-3 (Ref.eq),21.22706,R,ugm-3,21.58764,R,ugm-3,54.13534,R,ugm-3,4.000,R,ugm-3 (BAM)
04-01-2023,10:00,6.763,R,ugm-3 (Ref.eq),12.22062,R,ugm-3,13.42713,R,ugm-3,32.16516,R,ugm-3,4.000,R,ugm-3 (BAM)
04-01-2023,11:00,5.797,R,ugm-3 (Ref.eq),7.03104,R,ugm-3,12.31084,R,ugm-3,23.09163,R,ugm-3,9.000,R,ugm-3 (BAM)
04-01-2023,12:00,10.628,R,ugm-3 (Ref.eq),9.40821,R,ugm-3,10.19516,R,ugm-3,24.62087,R,ugm-3,7.000,R,ugm-3 (BAM)
04-01-2023,13:00,16.425,R,ugm-3 (Ref.eq),9.00643,R,ugm-3,11.42290,R,ugm-3,25.23257,R,ugm-3,6.000,R,ugm-3 (BAM)
04-01-2023,14:00,22.223,R,ugm-3 (Ref.eq),13.22506,R,ugm-3,16.67866,R,ugm-3,36.95680,R,ugm-3,10.000,R,ugm-3 (BAM)
04-01-2023,15:00,16.425,R,ugm-3 (Ref.eq),19.28515,R,ugm-3,21.35377,R,ugm-3,50.92392,R,ugm-3,12.000,R,ugm-3 (BAM)
04-01-2023,16:00,16.425,R,ugm-3 (Ref.eq),33.01243,R,ugm-3,33.74510,R,ugm-3,84.36345,R,ugm-3,9.000,R,ugm-3 (BAM)
04-01-2023,17:00,16.425,R,ugm-3 (Ref.eq),13.62683,R,ugm-3,15.14507,R,ugm-3,36.03925,R,ugm-3,4.000,R,ugm-3 (BAM)
04-01-2023,18:00,28.986,R,ugm-3 (Ref.eq),15.87007,R,ugm-3,19.81049,R,ugm-3,44.14426,R,ugm-3,8.000,R,ugm-3 (BAM)
04-01-2023,19:00,20.290,R,ugm-3 (Ref.eq),13.19158,R,ugm-3,16.98487,R,ugm-3,37.21167,R,ugm-3,12.000,R,ugm-3 (BAM)
04-01-2023,20:00,14.493,R,ugm-3 (Ref.eq),11.01530,R,ugm-3,11.29922,R,ugm-3,28.18912,R,ugm-3,12.000,R,ugm-3 (BAM)
04-01-2023,21:00,23.189,R,ugm-3 (Ref.eq),12.18714,R,ugm-3,13.17262,R,ugm-3,31.85931,R,ugm-3,11.000,R,ugm-3 (BAM)
04-01-2023,22:00,15.459,R,ugm-3 (Ref.eq),7.96852,R,ugm-3,14.28872,R,ugm-3,26.50694,R,ugm-3,10.000,R,ugm-3 (BAM)
04-01-2023,23:00,17.392,R,ugm-3 (Ref.eq),4.35255,R,ugm-3,8.61865,R,ugm-3,15.29247,R,ugm-3,10.000,R,ugm-3 (BAM)
04-01-2023,24:00,13.527,R,ugm-3 (Ref.eq),2.61153,R,ugm-3,5.06924,R,ugm-3,9.07353,R,ugm-3,7.000,R,ugm-3 (BAM)
05-01-2023,01:00,19.324,R,ugm-3 (Ref.eq),1.87630,R,ugm-3,4.33244,R,ugm-3,7.20940,R,ugm-3,6.000,R,ugm-3 (BAM)
05-01-2023,02:00,14.493,R,ugm-3 (Ref.eq),0.63660,R,ugm-3,2.18650,R,ugm-3,3.16261,R,ugm-3,9.000,R,ugm-3 (BAM)
05-01-2023,03:00,20.290,R,ugm-3 (Ref.eq),0.50258,R,ugm-3,0.86170,R,ugm-3,1.63232,R,ugm-3,13.000,R,ugm-3 (BAM)
05-01-2023,04:00,14.493,R,ugm-3 (Ref.eq),0.56959,R,ugm-3,0.80997,R,ugm-3,1.68333,R,ugm-3,11.000,R,ugm-3 (BAM)
05-01-2023,05:00,22.223,R,ugm-3 (Ref.eq),1.54125,R,ugm-3,3.19687,R,ugm-3,5.56008,R,ugm-3,9.000,R,ugm-3 (BAM)
05-01-2023,06:00,19.324,R,ugm-3 (Ref.eq),4.48972,R,ugm-3,8.46984,R,ugm-3,15.35398,R,ugm-3,7.000,R,ugm-3 (BAM)
05-01-2023,07:00,19.324,R,ugm-3 (Ref.eq),14.23979,R,ugm-3,15.91329,R,ugm-3,37.74733,R,ugm-3,9.000,R,ugm-3 (BAM)
05-01-2023,08:00,25.121,R,ugm-3 (Ref.eq),50.66013,R,ugm-3,31.43239,R,ugm-3,109.11018,R,ugm-3,12.000,R,ugm-3 (BAM)
05-01-2023,09:00,26.087,R,ugm-3 (Ref.eq),44.86370,R,ugm-3,41.64639,R,ugm-3,110.43644,R,ugm-3,12.000,R,ugm-3 (BAM)
05-01-2023,10:00,25.121,R,ugm-3 (Ref.eq),25.22955,R,ugm-3,30.63769,R,ugm-3,69.32246,R,ugm-3,14.000,R,ugm-3 (BAM)
05-01-2023,11:00,21.256,R,ugm-3 (Ref.eq),19.03106,R,ugm-3,22.18643,R,ugm-3,51.36697,R,ugm-3,10.000,R,ugm-3 (BAM)
05-01-2023,12:00,12.561,R,ugm-3 (Ref.eq),18.69600,R,ugm-3,25.96480,R,ugm-3,54.63161,R,ugm-3,6.000,R,ugm-3 (BAM)
05-01-2023,13:00,15.459,R,ugm-3 (Ref.eq),10.45368,R,ugm-3,14.22012,R,ugm-3,30.24887,R,ugm-3,4.000,R,ugm-3 (BAM)
05-01-2023,14:00,12.561,R,ugm-3 (Ref.eq),19.33260,R,ugm-3,24.58061,R,ugm-3,54.22353,R,ugm-3,4.000,R,ugm-3 (BAM)
05-01-2023,15:00,18.358,R,ugm-3 (Ref.eq),35.24766,R,ugm-3,33.64036,R,ugm-3,87.68602,R,ugm-3,6.000,R,ugm-3 (BAM)
05-01-2023,16:00,27.054,R,ugm-3 (Ref.eq),47.54413,R,ugm-3,33.76172,R,ugm-3,106.66171,R,ugm-3,7.000,R,ugm-3 (BAM)
05-01-2023,17:00,22.223,R,ugm-3 (Ref.eq),17.32228,R,ugm-3,23.12319,R,ugm-3,49.68364,R,ugm-3,9.000,R,ugm-3 (BAM)
05-01-2023,18:00,20.290,R,ugm-3 (Ref.eq),19.26559,R,ugm-3,19.37833,R,ugm-3,48.91850,R,ugm-3,7.000,R,ugm-3 (BAM)
05-01-2023,19:00,17.392,R,ugm-3 (Ref.eq),9.01295,R,ugm-3,19.38779,R,ugm-3,33.20745,R,ugm-3,8.000,R,ugm-3 (BAM)
05-01-2023,20:00,12.561,R,ugm-3 (Ref.eq),11.25781,R,ugm-3,13.54825,R,ugm-3,30.80998,R,ugm-3,8.000,R,ugm-3 (BAM)
05-01-2023,21:00,16.425,R,ugm-3 (Ref.eq),8.61088,R,ugm-3,16.84166,R,ugm-3,30.04483,R,ugm-3,7.000,R,ugm-3 (BAM)
05-01-2023,22:00,10.628,R,ugm-3 (Ref.eq),3.68559,R,ugm-3,9.14171,R,ugm-3,14.79287,R,ugm-3,5.000,R,ugm-3 (BAM)
05-01-2023,23:00,9.662,R,ugm-3 (Ref.eq),3.04899,R,ugm-3,6.49612,R,ugm-3,11.17117,R,ugm-3,2.000,R,ugm-3 (BAM)
05-01-2023,24:00,6.763,R,ugm-3 (Ref.eq),1.54125,R,ugm-3,3.55394,R,ugm-3,5.91715,R,ugm-3,6.000,R,ugm-3 (BAM)
06-01-2023,01:00,5.797,R,ugm-3 (Ref.eq),1.78825,R,ugm-3,2.90703,R,ugm-3,5.64897,R,ugm-3,6.000,R,ugm-3 (BAM)
06-01-2023,02:00,3.865,R,ugm-3 (Ref.eq),0.46941,R,ugm-3,1.83249,R,ugm-3,2.55225,R,ugm-3,2.000,R,ugm-3 (BAM)
06-01-2023,03:00,0.966,R,ugm-3 (Ref.eq),0.40236,R,ugm-3,1.98636,R,ugm-3,2.60329,R,ugm-3,3.000,R,ugm-3 (BAM)
06-01-2023,04:00,0.966,R,ugm-3 (Ref.eq),0.73765,R,ugm-3,1.31911,R,ugm-3,2.45016,R,ugm-3,3.000,R,ugm-3 (BAM)
06-01-2023,05:00,0.000,R,ugm-3 (Ref.eq),2.11237,R,ugm-3,2.63125,R,ugm-3,5.87016,R,ugm-3,2.000,R,ugm-3 (BAM)
06-01-2023,06:00,1.932,R,ugm-3 (Ref.eq),3.99002,R,ugm-3,8.73612,R,ugm-3,14.85407,R,ugm-3,4.000,R,ugm-3 (BAM)
06-01-2023,07:00,2.899,R,ugm-3 (Ref.eq),10.29359,R,ugm-3,23.06190,R,ugm-3,38.84518,R,ugm-3,5.000,R,ugm-3 (BAM)
06-01-2023,08:00,10.628,R,ugm-3 (Ref.eq),37.65374,R,ugm-3,39.70981,R,ugm-3,97.44474,R,ugm-3,4.000,R,ugm-3 (BAM)
06-01-2023,09:00,6.763,R,ugm-3 (Ref.eq),39.76610,R,ugm-3,46.67988,R,ugm-3,107.65372,R,ugm-3,4.000,R,ugm-3 (BAM)
06-01-2023,10:00,6.763,R,ugm-3 (Ref.eq),21.35835,R,ugm-3,22.83889,R,ugm-3,55.58791,R,ugm-3,6.000,R,ugm-3 (BAM)
06-01-2023,11:00,11.594,R,ugm-3 (Ref.eq),22.02895,R,ugm-3,25.28172,R,ugm-3,59.05896,R,ugm-3,6.000,R,ugm-3 (BAM)
06-01-2023,12:00,12.561,R,ugm-3 (Ref.eq),15.55773,R,ugm-3,25.86289,R,ugm-3,49.71774,R,ugm-3,7.000,R,ugm-3 (BAM)
06-01-2023,13:00,15.459,R,ugm-3 (Ref.eq),15.55773,R,ugm-3,24.48467,R,ugm-3,48.33953,R,ugm-3,5.000,R,ugm-3 (BAM)
06-01-2023,14:00,23.189,R,ugm-3 (Ref.eq),18.17304,R,ugm-3,20.06623,R,ugm-3,47.93117,R,ugm-3,3.000,R,ugm-3 (BAM)
06-01-2023,15:00,23.189,R,ugm-3 (Ref.eq),64.61154,R,ugm-3,65.49916,R,ugm-3,164.56880,R,ugm-3,7.000,R,ugm-3 (BAM)
06-01-2023,16:00,12.561,R,ugm-3 (Ref.eq),27.89663,R,ugm-3,39.76539,R,ugm-3,82.53962,R,ugm-3,8.000,R,ugm-3 (BAM)
06-01-2023,17:00,13.527,R,ugm-3 (Ref.eq),27.02486,R,ugm-3,33.13908,R,ugm-3,74.57662,R,ugm-3,7.000,R,ugm-3 (BAM)
06-01-2023,18:00,8.696,R,ugm-3 (Ref.eq),18.74305,R,ugm-3,30.77943,R,ugm-3,59.51837,R,ugm-3,6.000,R,ugm-3 (BAM)
06-01-2023,19:00,5.797,R,ugm-3 (Ref.eq),10.93065,R,ugm-3,16.01074,R,ugm-3,32.77083,R,ugm-3,2.000,R,ugm-3 (BAM)
06-01-2023,20:00,4.831,R,ugm-3 (Ref.eq),12.17124,R,ugm-3,13.08762,R,ugm-3,31.74994,R,ugm-3,1.000,R,ugm-3 (BAM)
06-01-2023,21:00,3.865,R,ugm-3 (Ref.eq),6.84004,R,ugm-3,12.02290,R,ugm-3,22.51081,R,ugm-3,4.000,R,ugm-3 (BAM)
06-01-2023,22:00,3.865,R,ugm-3 (Ref.eq),4.12414,R,ugm-3,6.59077,R,ugm-3,12.91436,R,ugm-3,7.000,R,ugm-3 (BAM)
06-01-2023,23:00,4.831,R,ugm-3 (Ref.eq),2.61531,R,ugm-3,7.52607,R,ugm-3,11.53615,R,ugm-3,5.000,R,ugm-3 (BAM)
06-01-2023,24:00,5.797,R,ugm-3 (Ref.eq),1.37471,R,ugm-3,5.29365,R,ugm-3,7.40151,R,ugm-3,5.000,R,ugm-3 (BAM)
07-01-2023,01:00,6.763,R,ugm-3 (Ref.eq),1.25268,R,ugm-3,6.79690,R,ugm-3,8.71764,R,ugm-3,4.000,R,ugm-3 (BAM)
07-01-2023,02:00,10.628,R,ugm-3 (Ref.eq),1.10728,R,ugm-3,2.43968,R,ugm-3,4.13747,R,ugm-3,4.000,R,ugm-3 (BAM)
07-01-2023,03:00,11.594,R,ugm-3 (Ref.eq),0.83885,R,ugm-3,1.88074,R,ugm-3,3.16696,R,ugm-3,6.000,R,ugm-3 (BAM)
07-01-2023,04:00,9.662,R,ugm-3 (Ref.eq),0.63752,R,ugm-3,2.18943,R,ugm-3,3.16696,R,ugm-3,7.000,R,ugm-3 (BAM)
07-01-2023,05:00,10.628,R,ugm-3 (Ref.eq),0.20132,R,ugm-3,1.22371,R,ugm-3,1.53240,R,ugm-3,5.000,R,ugm-3 (BAM)
07-01-2023,06:00,3.865,R,ugm-3 (Ref.eq),0.46975,R,ugm-3,2.14020,R,ugm-3,2.86048,R,ugm-3,4.000,R,ugm-3 (BAM)
07-01-2023,07:00,10.628,R,ugm-3 (Ref.eq),1.34215,R,ugm-3,3.15221,R,ugm-3,5.21015,R,ugm-3,6.000,R,ugm-3 (BAM)
07-01-2023,08:00,6.763,R,ugm-3 (Ref.eq),1.37571,R,ugm-3,3.40725,R,ugm-3,5.51663,R,ugm-3,5.000,R,ugm-3 (BAM)
07-01-2023,09:00,8.696,R,ugm-3 (Ref.eq),2.48298,R,ugm-3,6.10232,R,ugm-3,9.90950,R,ugm-3,4.000,R,ugm-3 (BAM)
07-01-2023,10:00,9.662,R,ugm-3 (Ref.eq),3.40012,R,ugm-3,6.36467,R,ugm-3,11.57812,R,ugm-3,6.000,R,ugm-3 (BAM)
07-01-2023,11:00,8.696,R,ugm-3 (Ref.eq),6.67721,R,ugm-3,12.23692,R,ugm-3,22.47517,R,ugm-3,7.000,R,ugm-3 (BAM)
07-01-2023,12:00,9.662,R,ugm-3 (Ref.eq),6.77787,R,ugm-3,10.24370,R,ugm-3,20.63629,R,ugm-3,7.000,R,ugm-3 (BAM)
07-01-2023,13:00,11.594,R,ugm-3 (Ref.eq),7.81804,R,ugm-3,9.51716,R,ugm-3,21.50465,R,ugm-3,6.000,R,ugm-3 (BAM)
07-01-2023,14:00,7.730,R,ugm-3 (Ref.eq),5.46927,R,ugm-3,9.03215,R,ugm-3,17.41825,R,ugm-3,6.000,R,ugm-3 (BAM)
07-01-2023,15:00,9.662,R,ugm-3 (Ref.eq),6.27456,R,ugm-3,9.22763,R,ugm-3,18.84849,R,ugm-3,8.000,R,ugm-3 (BAM)
07-01-2023,16:00,10.628,R,ugm-3 (Ref.eq),7.01275,R,ugm-3,10.03680,R,ugm-3,20.78953,R,ugm-3,8.000,R,ugm-3 (BAM)
07-01-2023,17:00,13.527,R,ugm-3 (Ref.eq),6.07324,R,ugm-3,10.81332,R,ugm-3,20.12549,R,ugm-3,7.000,R,ugm-3 (BAM)
07-01-2023,18:00,8.696,R,ugm-3 (Ref.eq),4.76464,R,ugm-3,10.92985,R,ugm-3,18.23553,R,ugm-3,5.000,R,ugm-3 (BAM)
07-01-2023,19:00,7.730,R,ugm-3 (Ref.eq),9.19375,R,ugm-3,9.34880,R,ugm-3,23.44568,R,ugm-3,7.000,R,ugm-3 (BAM)
07-01-2023,20:00,4.831,R,ugm-3 (Ref.eq),6.27456,R,ugm-3,12.03702,R,ugm-3,21.65789,R,ugm-3,5.000,R,ugm-3 (BAM)
07-01-2023,21:00,16.425,R,ugm-3 (Ref.eq),6.30812,R,ugm-3,9.27834,R,ugm-3,18.95065,R,ugm-3,4.000,R,ugm-3 (BAM)
07-01-2023,22:00,12.561,R,ugm-3 (Ref.eq),9.59639,R,ugm-3,12.10270,R,ugm-3,26.81696,R,ugm-3,8.000,R,ugm-3 (BAM)
07-01-2023,23:00,18.358,R,ugm-3 (Ref.eq),2.81852,R,ugm-3,5.63891,R,ugm-3,9.96059,R,ugm-3,9.000,R,ugm-3 (BAM)
07-01-2023,24:00,17.392,R,ugm-3 (Ref.eq),3.48960,R,ugm-3,7.47042,R,ugm-3,12.82106,R,ugm-3,11.000,R,ugm-3 (BAM)
08-01-2023,01:00,13.527,R,ugm-3 (Ref.eq),1.29835,R,ugm-3,4.55194,R,ugm-3,6.54271,R,ugm-3,8.000,R,ugm-3 (BAM)
08-01-2023,02:00,11.594,R,ugm-3 (Ref.eq),1.11927,R,ugm-3,2.91823,R,ugm-3,4.63442,R,ugm-3,10.000,R,ugm-3 (BAM)
08-01-2023,03:00,18.358,R,ugm-3 (Ref.eq),0.87303,R,ugm-3,3.61952,R,ugm-3,4.95815,R,ugm-3,9.000,R,ugm-3 (BAM)
08-01-2023,04:00,18.358,R,ugm-3 (Ref.eq),0.57083,R,ugm-3,3.82732,R,ugm-3,4.70257,R,ugm-3,8.000,R,ugm-3 (BAM)
08-01-2023,05:00,20.290,R,ugm-3 (Ref.eq),1.41028,R,ugm-3,5.30039,R,ugm-3,7.46278,R,ugm-3,8.000,R,ugm-3 (BAM)
08-01-2023,06:00,16.425,R,ugm-3 (Ref.eq),0.97376,R,ugm-3,2.85169,R,ugm-3,4.34477,R,ugm-3,5.000,R,ugm-3 (BAM)
08-01-2023,07:00,4.831,R,ugm-3 (Ref.eq),1.52221,R,ugm-3,2.70933,R,ugm-3,5.04334,R,ugm-3,2.000,R,ugm-3 (BAM)
08-01-2023,08:00,1.932,R,ugm-3 (Ref.eq),1.74606,R,ugm-3,7.44351,R,ugm-3,10.12076,R,ugm-3,2.000,R,ugm-3 (BAM)
08-01-2023,09:00,6.763,R,ugm-3 (Ref.eq),2.65267,R,ugm-3,6.15562,R,ugm-3,10.22299,R,ugm-3,5.000,R,ugm-3 (BAM)
08-01-2023,10:00,11.594,R,ugm-3 (Ref.eq),5.84258,R,ugm-3,11.28302,R,ugm-3,20.24151,R,ugm-3,5.000,R,ugm-3 (BAM)
08-01-2023,11:00,16.425,R,ugm-3 (Ref.eq),5.40606,R,ugm-3,9.39659,R,ugm-3,17.68577,R,ugm-3,6.000,R,ugm-3 (BAM)
08-01-2023,12:00,15.459,R,ugm-3 (Ref.eq),9.60332,R,ugm-3,14.81955,R,ugm-3,29.54443,R,ugm-3,6.000,R,ugm-3 (BAM)
08-01-2023,13:00,14.493,R,ugm-3 (Ref.eq),7.62221,R,ugm-3,13.05240,R,ugm-3,24.73963,R,ugm-3,7.000,R,ugm-3 (BAM)
08-01-2023,14:00,18.358,R,ugm-3 (Ref.eq),8.46166,R,ugm-3,13.55428,R,ugm-3,26.52865,R,ugm-3,19.000,R,ugm-3 (BAM)
08-01-2023,15:00,14.493,R,ugm-3 (Ref.eq),4.93597,R,ugm-3,10.11738,R,ugm-3,17.68577,R,ugm-3,23.000,R,ugm-3 (BAM)
08-01-2023,16:00,7.730,R,ugm-3 (Ref.eq),7.15212,R,ugm-3,9.83734,R,ugm-3,20.80378,R,ugm-3,0.000,R,ugm-3 (BAM)
08-01-2023,17:00,6.763,R,ugm-3 (Ref.eq),6.54772,R,ugm-3,16.13115,R,ugm-3,26.17085,R,ugm-3,-1.000,R,ugm-3 (BAM)
08-01-2023,18:00,7.730,R,ugm-3 (Ref.eq),5.50680,R,ugm-3,13.28021,R,ugm-3,21.72385,R,ugm-3,4.000,R,ugm-3 (BAM)
08-01-2023,19:00,11.594,R,ugm-3 (Ref.eq),7.21928,R,ugm-3,14.13026,R,ugm-3,25.19966,R,ugm-3,6.000,R,ugm-3 (BAM)
08-01-2023,20:00,8.696,R,ugm-3 (Ref.eq),6.21194,R,ugm-3,18.02611,R,ugm-3,27.55095,R,ugm-3,5.000,R,ugm-3 (BAM)
08-01-2023,21:00,9.662,R,ugm-3 (Ref.eq),9.09965,R,ugm-3,19.62991,R,ugm-3,33.58251,R,ugm-3,7.000,R,ugm-3 (BAM)
08-01-2023,22:00,15.459,R,ugm-3 (Ref.eq),2.51835,R,ugm-3,10.70634,R,ugm-3,14.56776,R,ugm-3,7.000,R,ugm-3 (BAM)
08-01-2023,23:00,6.763,R,ugm-3 (Ref.eq),1.47743,R,ugm-3,6.32194,R,ugm-3,8.58731,R,ugm-3,5.000,R,ugm-3 (BAM)
08-01-2023,24:00,5.797,R,ugm-3 (Ref.eq),0.60440,R,ugm-3,3.00911,R,ugm-3,3.93585,R,ugm-3,5.000,R,ugm-3 (BAM)
09-01-2023,01:00,7.730,R,ugm-3 (Ref.eq),1.20968,R,ugm-3,3.80578,R,ugm-3,5.66059,R,ugm-3,5.000,R,ugm-3 (BAM)
09-01-2023,02:00,5.797,R,ugm-3 (Ref.eq),1.98253,R,ugm-3,3.45620,R,ugm-3,6.49604,R,ugm-3,5.000,R,ugm-3 (BAM)
09-01-2023,03:00,4.831,R,ugm-3 (Ref.eq),0.36963,R,ugm-3,2.09305,R,ugm-3,2.65980,R,ugm-3,6.000,R,ugm-3 (BAM)
09-01-2023,04:00,3.865,R,ugm-3 (Ref.eq),0.70565,R,ugm-3,2.24277,R,ugm-3,3.32475,R,ugm-3,6.000,R,ugm-3 (BAM)
09-01-2023,05:00,2.899,R,ugm-3 (Ref.eq),0.97447,R,ugm-3,2.03519,R,ugm-3,3.52935,R,ugm-3,4.000,R,ugm-3 (BAM)
09-01-2023,06:00,11.594,R,ugm-3 (Ref.eq),5.24195,R,ugm-3,5.36374,R,ugm-3,13.40129,R,ugm-3,3.000,R,ugm-3 (BAM)
09-01-2023,07:00,13.527,R,ugm-3 (Ref.eq),26.84820,R,ugm-3,21.59431,R,ugm-3,62.76098,R,ugm-3,3.000,R,ugm-3 (BAM)
09-01-2023,08:00,10.628,R,ugm-3 (Ref.eq),44.89261,R,ugm-3,38.27360,R,ugm-3,107.10798,R,ugm-3,4.000,R,ugm-3 (BAM)
09-01-2023,09:00,11.594,R,ugm-3 (Ref.eq),50.23537,R,ugm-3,51.35986,R,ugm-3,128.38635,R,ugm-3,7.000,R,ugm-3 (BAM)
09-01-2023,10:00,17.392,R,ugm-3 (Ref.eq),31.78773,R,ugm-3,30.18385,R,ugm-3,78.92436,R,ugm-3,10.000,R,ugm-3 (BAM)
09-01-2023,11:00,9.662,R,ugm-3 (Ref.eq),20.29576,R,ugm-3,18.70031,R,ugm-3,49.82004,R,ugm-3,8.000,R,ugm-3 (BAM)
09-01-2023,12:00,11.594,R,ugm-3 (Ref.eq),31.61972,R,ugm-3,26.24717,R,ugm-3,74.73006,R,ugm-3,8.000,R,ugm-3 (BAM)
09-01-2023,13:00,15.459,R,ugm-3 (Ref.eq),13.67612,R,ugm-3,20.87090,R,ugm-3,41.84065,R,ugm-3,7.000,R,ugm-3 (BAM)
09-01-2023,14:00,19.324,R,ugm-3 (Ref.eq),25.06728,R,ugm-3,31.53716,R,ugm-3,69.97312,R,ugm-3,6.000,R,ugm-3 (BAM)
09-01-2023,15:00,18.358,R,ugm-3 (Ref.eq),25.43691,R,ugm-3,30.30546,R,ugm-3,69.30817,R,ugm-3,5.000,R,ugm-3 (BAM)
09-01-2023,16:00,20.290,R,ugm-3 (Ref.eq),31.92214,R,ugm-3,35.91115,R,ugm-3,84.85775,R,ugm-3,9.000,R,ugm-3 (BAM)
09-01-2023,17:00,17.392,R,ugm-3 (Ref.eq),26.34417,R,ugm-3,31.93219,R,ugm-3,72.32602,R,ugm-3,9.000,R,ugm-3 (BAM)
09-01-2023,18:00,20.290,R,ugm-3 (Ref.eq),43.85094,R,ugm-3,44.21855,R,ugm-3,111.45572,R,ugm-3,11.000,R,ugm-3 (BAM)
09-01-2023,19:00,19.324,R,ugm-3 (Ref.eq),40.25550,R,ugm-3,55.97177,R,ugm-3,117.69601,R,ugm-3,11.000,R,ugm-3 (BAM)
09-01-2023,20:00,13.527,R,ugm-3 (Ref.eq),17.57398,R,ugm-3,31.36454,R,ugm-3,58.31093,R,ugm-3,10.000,R,ugm-3 (BAM)
09-01-2023,21:00,18.358,R,ugm-3 (Ref.eq),9.47584,R,ugm-3,20.30370,R,ugm-3,34.83311,R,ugm-3,11.000,R,ugm-3 (BAM)